Date String (YYYY-MM-DD hh:mm:ss) UTC,Instrument flags,Ambient pressure (hPa),Sample flow (lpm),Bypass flow (lpm),Sample temperature (°C),Ambient temperature (°C),ASC tube jacket temperature (°C),LED temperature (°C),Box temperature (°C),Sample RH (%),Span deviation,Mass concentration (μg/m³),Mass concentration (μg/m³),Mass concentration (μg/m³)
DateTimeUTC,F1_M11,P_M11,Q1_M11,Q2_M11,T1_M11,T2_M11,T3_M11,T4_M11,T5_M11,U1_M11,ZSPAN_M11,X0_M11,X2_M11,X1_M11
2022-10-12 16:00:00,,0827.7,5.02,0.00,28.6,27.7,00.0,37.1,30.6,17.6,0002.9,0016.48,0006.59,0005.49
2022-10-12 16:01:00,,0827.6,4.99,0.00,28.6,27.7,00.0,37.1,30.6,17.7,0002.4,0016.51,0006.54,0005.49
2022-10-12 16:02:00,,0827.6,5.00,0.00,28.6,27.7,00.0,37.2,30.6,17.7,0001.9,0017.17,0006.52,0005.48
2022-10-12 16:03:00,,0827.6,5.00,0.00,28.7,27.7,00.0,37.2,30.7,17.5,0001.7,0017.82,0006.54,0005.49
2022-10-12 16:04:00,,0827.7,4.99,0.00,28.7,27.8,00.0,37.2,30.7,17.3,0001.4,0017.28,0006.62,0005.52
2022-10-12 16:05:00,,0827.6,5.01,0.00,28.7,27.8,00.0,37.3,30.7,17.0,0001.3,0016.87,0006.71,0005.56
2022-10-12 16:06:00,,0827.6,5.01,0.00,28.7,27.8,00.0,37.3,30.8,17.6,0001.2,0015.98,0006.78,0005.61
2022-10-12 16:07:00,,0827.6,4.99,0.00,28.8,27.9,00.0,37.3,30.8,17.0,0001.3,0014.83,0006.76,0005.65
2022-10-12 16:08:00,,0827.6,5.01,0.00,28.8,27.9,00.0,37.3,30.8,16.5,0001.0,0014.71,0006.76,0005.68
2022-10-12 16:09:00,,0827.7,5.01,0.00,28.8,27.9,00.0,37.4,30.8,16.9,0000.7,0015.02,0006.82,0005.71
2022-10-12 16:10:00,,0827.7,4.99,0.00,28.9,27.9,00.0,37.4,30.9,17.4,0000.5,0015.14,0006.86,0005.75
2022-10-12 16:11:00,,0827.7,5.01,0.00,28.9,27.9,00.0,37.4,30.9,17.5,0000.5,0015.14,0006.91,0005.78
2022-10-12 16:12:00,,0827.7,5.00,0.00,28.9,28.0,00.0,37.5,30.9,17.4,0000.5,0015.42,0007.02,0005.81
2022-10-12 16:13:00,,0827.7,5.00,0.00,28.9,28.0,00.0,37.5,31.0,17.7,0000.6,0015.23,0007.12,0005.85
2022-10-12 16:14:00,,0827.7,5.00,0.00,29.0,28.0,00.0,37.5,31.0,17.3,0000.7,0015.05,0007.16,0005.89
2022-10-12 16:15:00,,0827.7,5.01,0.00,29.0,28.1,00.0,37.5,31.0,17.4,0000.7,0015.32,0007.15,0005.91
2022-10-12 16:16:00,,0827.7,4.99,0.00,29.0,28.1,00.0,37.6,31.0,16.9,0001.1,0015.75,0007.18,0005.93
2022-10-12 16:17:00,,0827.7,5.00,0.00,29.1,28.1,00.0,37.6,31.1,17.2,0001.0,0016.25,0007.18,0005.95
2022-10-12 16:18:00,,0827.7,5.01,0.00,29.1,28.1,00.0,37.6,31.1,17.5,0000.5,0017.02,0007.22,0005.97
2022-10-12 16:19:00,,0827.8,5.00,0.00,29.1,28.2,00.0,37.6,31.1,17.7,0000.5,0017.17,0007.25,0005.99
2022-10-12 16:20:00,,0827.9,4.99,0.00,29.1,28.2,00.0,37.7,31.1,17.1,0000.4,0017.15,0007.31,0006.01
2022-10-12 16:21:00,,0827.9,5.01,0.00,29.2,28.2,00.0,37.7,31.2,17.3,0000.5,0017.68,0007.38,0006.04
2022-10-12 16:22:00,,0827.9,5.00,0.00,29.2,28.2,00.0,37.7,31.2,17.2,0000.6,0018.43,0007.44,0006.08
2022-10-12 16:23:00,,0827.9,4.99,0.00,29.2,28.3,00.0,37.7,31.2,17.4,0000.9,0018.03,0007.44,0006.12
2022-10-12 16:24:00,,0827.9,5.01,0.00,29.3,28.3,00.0,37.8,31.2,16.9,0001.4,0017.69,0007.38,0006.16
2022-10-12 16:25:00,,0827.9,5.01,0.00,29.3,28.3,00.0,37.8,31.3,16.8,0001.8,0017.05,0007.39,0006.20
2022-10-12 16:26:00,,0828.0,4.98,0.00,29.3,28.3,00.0,37.8,31.3,16.8,0002.3,0017.16,0007.41,0006.22
2022-10-12 16:27:00,,0827.9,5.01,0.00,29.3,28.4,00.0,37.9,31.3,17.1,0001.8,0017.53,0007.40,0006.23
2022-10-12 16:28:00,,0827.9,5.01,0.00,29.4,28.4,00.0,37.9,31.4,17.2,0002.0,0016.81,0007.35,0006.22
2022-10-12 16:29:00,,0828.0,4.99,0.00,29.4,28.4,00.0,37.9,31.4,17.1,0002.3,0016.48,0007.37,0006.21
2022-10-12 16:30:00,,0827.9,4.99,0.00,29.4,28.5,00.0,37.9,31.4,17.1,0002.9,0016.80,0007.39,0006.21
2022-10-12 16:31:00,,0827.9,5.00,0.00,29.4,28.5,00.0,38.0,31.4,17.2,0003.0,0016.76,0007.38,0006.21
2022-10-12 16:32:00,,0828.0,5.01,0.00,29.5,28.5,00.0,38.0,31.4,17.5,0002.7,0016.38,0007.38,0006.21
2022-10-12 16:33:00,,0828.0,5.00,0.00,29.5,28.5,00.0,38.0,31.5,17.4,0002.3,0015.57,0007.36,0006.19
2022-10-12 16:34:00,,0828.0,4.99,0.00,29.5,28.6,00.0,38.0,31.5,17.1,0002.4,0015.86,0007.33,0006.16
2022-10-12 16:35:00,,0828.0,5.01,0.00,29.5,28.6,00.0,38.1,31.5,17.0,0002.4,0016.44,0007.34,0006.14
2022-10-12 16:36:00,,0828.0,5.00,0.00,29.6,28.6,00.0,38.1,31.6,17.2,0002.2,0016.55,0007.33,0006.09
2022-10-12 16:37:00,,0828.1,5.01,0.00,29.6,28.7,00.0,38.1,31.6,16.8,0001.8,0015.77,0007.29,0006.07
2022-10-12 16:38:00,,0828.0,4.98,0.00,29.6,28.7,00.0,38.2,31.6,17.1,0002.0,0014.80,0007.27,0006.07
2022-10-12 16:39:00,,0828.0,5.00,0.00,29.7,28.7,00.0,38.2,31.6,17.1,0002.0,0014.86,0007.29,0006.08
2022-10-12 16:40:00,,0828.0,5.00,0.00,29.7,28.7,00.0,38.2,31.7,17.1,0002.1,0015.26,0007.32,0006.08
2022-10-12 16:41:00,,0828.0,5.00,0.00,29.7,28.8,00.0,38.2,31.7,17.1,0001.5,0014.90,0007.28,0006.07
2022-10-12 16:42:00,,0828.0,4.99,0.00,29.8,28.8,00.0,38.3,31.8,17.0,0001.1,0014.77,0007.24,0006.06
2022-10-12 16:43:00,,0828.0,4.99,0.00,29.8,28.8,00.0,38.3,31.8,16.8,0001.2,0015.19,0007.21,0006.05
2022-10-12 16:44:00,,0828.0,5.01,0.00,29.8,28.8,00.0,38.3,31.8,17.0,0001.1,0015.08,0007.16,0006.05
2022-10-12 16:45:00,,0828.0,5.01,0.00,29.8,28.9,00.0,38.4,31.8,16.9,0001.2,0015.09,0007.13,0006.03
2022-10-12 16:46:00,,0828.1,4.99,0.00,29.9,28.9,00.0,38.4,31.8,16.4,0001.2,0014.66,0007.14,0006.04
2022-10-12 16:47:00,,0828.1,5.00,0.00,29.9,28.9,00.0,38.4,31.9,16.7,0001.1,0014.92,0007.18,0006.05
2022-10-12 16:48:00,,0828.2,5.00,0.00,29.9,29.0,00.0,38.4,31.9,16.8,0001.1,0014.95,0007.19,0006.01
2022-10-12 16:49:00,,0828.2,5.01,0.00,30.0,29.0,00.0,38.5,31.9,16.9,0000.7,0014.80,0007.14,0005.97
2022-10-12 16:50:00,,0828.2,5.00,0.00,30.0,29.0,00.0,38.5,32.0,16.7,0000.5,0014.57,0007.09,0005.93
2022-10-12 16:51:00,,0828.2,5.00,0.00,30.0,29.1,00.0,38.5,32.0,17.1,0000.2,0014.30,0007.02,0005.90
2022-10-12 16:52:00,,0828.2,4.99,0.00,30.1,29.1,00.0,38.6,32.0,17.1,0000.3,0014.85,0007.01,0005.87
2022-10-12 16:53:00,,0828.1,5.00,0.00,30.1,29.1,00.0,38.6,32.0,17.0,0000.9,0014.95,0007.00,0005.85
2022-10-12 16:54:00,,0828.2,5.00,0.00,30.1,29.1,00.0,38.6,32.1,16.9,0001.0,0014.46,0006.97,0005.83
2022-10-12 16:55:00,,0828.2,5.00,0.00,30.1,29.2,00.0,38.6,32.1,17.0,0000.9,0015.17,0007.01,0005.80
2022-10-12 16:56:00,,0828.3,4.99,0.00,30.2,29.2,00.0,38.7,32.1,16.8,0000.2,0015.31,0006.99,0005.79
2022-10-12 16:57:00,,0828.3,5.01,0.00,30.2,29.2,00.0,38.7,32.1,16.9,-000.3,0016.04,0006.96,0005.76
2022-10-12 16:58:00,,0828.2,5.00,0.00,30.2,29.3,00.0,38.7,32.2,17.0,-000.3,0015.61,0006.95,0005.74
2022-10-12 16:59:00,,0828.2,5.00,0.00,30.3,29.3,00.0,38.7,32.2,16.1,-000.4,0015.54,0006.95,0005.74
